Location: Eyeline Observatory
(43.2182°N, 78.8632°W)
Time: 10:15:52
(UTC-05:00)

Envisat - Pass Details

Date: 15 October 2017
Orbit: 764 x 766 km, 98.2° (Epoch: 10 December)

Event Time Altitude Azimuth Distance (km) Brightness Sun altitude
Exits shadow 21:23:13 49° 306° (NW) 984 3.8 -31.6°
Drops below altitude 10° 21:27:14 10° 339° (NNW) 2,314 5.9 -32.3°
Sets 21:29:35 0° 344° (NNW) 3,245 6.7 -32.7°
